Weather History for Auburn-Lewiston, ME

Change the Weather History Date:

Thursday, May 9, 2013

  Actual Average Record
Temperature  
Mean Temperature 56 °F -  
Max Temperature 62 °F 60 °F 82 °F (2007)
Min Temperature 51 °F 39 °F 28 °F (1997)
Degree Days  
Heating Degree Days 8    
Growing Degree Days 6 (Base 50)    
Moisture  
Dew Point 54 °F    
Average Humidity 93    
Maximum Humidity 100    
Minimum Humidity 82    
Precipitation  
Precipitation 0.00 in - - ()
Sea Level Pressure  
Sea Level Pressure 30.00 in    
Wind  
Wind Speed 4 mph (ESE)    
Max Wind Speed 15 mph    
Max Gust Speed 22 mph    
Visibility 7 miles    
Events      
Averages and records for this station are not official NWS values.
T = Trace of Precipitation, MM = Missing Value Source: NWS Daily Summary

Daily Weather History Graph

Daily Weather History Graph

Search for Another Location

Airport:

Trip Planner

Search our weather history database for the weather conditions in past years. The results will help you decide how hot, cold, wet, or windy it might be!

Date:

Astronomy

May. 09, 2013 Rise Set
Actual Time 5:21 AM EDT 7:54 PM EDT
Civil Twilight 4:48 AM EDT 8:27 PM EDT
Nautical Twilight 4:08 AM EDT 9:08 PM EDT
Astronomical Twilight 3:21 AM EDT 9:54 PM EDT
Moon 5:05 AM EDT (5/9) 7:46 PM EDT (5/9)
Length of Visible Light 15h 38m
Length of Day
14h 32m
Waning Crescent, 0% of the Moon is Illuminated
May 9
Waning Crescent
May 9
New
May 18
First Quarter
May 25
Full
May 31
Last Quarter

Hourly Weather History & Observations

Time (EDT) Temp. Dew Point Humidity Pressure Visibility Wind Dir Wind Speed Gust Speed Precip Events Conditions
12:15 AM 57.2 °F 53.6 °F 88% 30.12 in 10.0 mi East 5.8 mph - N/A   Overcast
12:35 AM 57.2 °F 53.6 °F 88% 30.11 in 10.0 mi ESE 4.6 mph - N/A   Overcast
12:55 AM 55.4 °F 53.6 °F 94% 30.11 in 10.0 mi SE 3.5 mph - N/A   Overcast
1:15 AM 55.4 °F 53.6 °F 94% 30.10 in 10.0 mi ESE 3.5 mph - N/A   Overcast
1:35 AM 55.4 °F 53.6 °F 94% 30.09 in 10.0 mi SE 8.1 mph - N/A   Overcast
1:55 AM 55.4 °F 53.6 °F 94% 30.08 in 10.0 mi SSE 3.5 mph - N/A   Overcast
2:15 AM 55.4 °F 53.6 °F 94% 30.08 in 8.0 mi SE 8.1 mph - N/A   Overcast
2:35 AM 55.4 °F 53.6 °F 94% 30.08 in 8.0 mi SE 6.9 mph - N/A   Overcast
2:55 AM 55.4 °F 51.8 °F 88% 30.07 in 8.0 mi SSE 6.9 mph - N/A   Overcast
3:15 AM 53.6 °F 51.8 °F 94% 30.07 in 7.0 mi ESE 3.5 mph - N/A   Overcast
3:35 AM 53.6 °F 51.8 °F 94% 30.07 in 5.0 mi Calm Calm - N/A   Overcast
3:55 AM 53.6 °F 51.8 °F 94% 30.06 in 3.0 mi ESE 4.6 mph - N/A   Overcast
4:15 AM 53.6 °F 51.8 °F 94% 30.04 in 5.0 mi NE 3.5 mph - N/A   Overcast
4:35 AM 53.6 °F 51.8 °F 94% 30.03 in 10.0 mi Calm Calm - N/A   Overcast
4:55 AM 53.6 °F 51.8 °F 94% 30.02 in 10.0 mi ENE 4.6 mph - N/A   Overcast
5:15 AM 53.6 °F 51.8 °F 94% 30.02 in 10.0 mi NE 3.5 mph - N/A   Overcast
5:35 AM 53.6 °F 51.8 °F 94% 30.04 in 10.0 mi Calm Calm - N/A   Overcast
5:55 AM 53.6 °F 51.8 °F 94% 30.04 in 10.0 mi Calm Calm - N/A   Overcast
6:15 AM 53.6 °F 51.8 °F 94% 30.05 in 10.0 mi ESE 5.8 mph - N/A   Overcast
6:36 AM 53.6 °F 51.8 °F 94% 30.04 in 1.8 mi East 3.5 mph - N/A   Overcast
6:55 AM 53.6 °F 51.8 °F 94% 30.03 in 4.0 mi East 5.8 mph - N/A   Overcast
7:15 AM 53.6 °F 51.8 °F 94% 30.03 in 2.5 mi East 4.6 mph - N/A   Overcast
7:35 AM 53.6 °F 51.8 °F 94% 30.03 in 1.8 mi East 3.5 mph - N/A   Overcast
7:55 AM 53.6 °F 51.8 °F 94% 30.04 in 1.5 mi East 4.6 mph - N/A   Overcast
8:15 AM 55.4 °F 53.6 °F 94% 30.05 in 1.5 mi ENE 3.5 mph - N/A   Overcast
8:35 AM 53.6 °F 53.6 °F 100% 30.05 in 1.8 mi East 3.5 mph - N/A   Overcast
8:55 AM 55.4 °F 53.6 °F 94% 30.04 in 1.8 mi ENE 4.6 mph - N/A   Overcast
9:15 AM 55.4 °F 53.6 °F 94% 30.03 in 3.0 mi East 3.5 mph - N/A   Overcast
9:35 AM 55.4 °F 53.6 °F 94% 30.03 in 5.0 mi Calm Calm - N/A   Overcast
9:55 AM 57.2 °F 53.6 °F 88% 30.03 in 6.0 mi ENE 3.5 mph - N/A   Overcast
10:15 AM 57.2 °F 53.6 °F 88% 30.02 in 10.0 mi East 4.6 mph - N/A   Overcast
10:35 AM 57.2 °F 55.4 °F 94% 30.02 in 7.0 mi East 4.6 mph - N/A   Overcast
10:55 AM 57.2 °F 55.4 °F 94% 30.02 in 7.0 mi East 3.5 mph - N/A   Overcast
11:35 AM 57.2 °F 55.4 °F 94% 30.01 in 10.0 mi East 5.8 mph - N/A   Overcast
11:55 AM 57.2 °F 55.4 °F 94% 30.01 in 5.0 mi ESE 4.6 mph - N/A   Overcast
12:15 PM 57.2 °F 55.4 °F 94% 30.00 in 7.0 mi East 3.5 mph - N/A   Overcast
12:35 PM 57.2 °F 55.4 °F 94% 29.99 in 10.0 mi NNE 5.8 mph - N/A   Overcast
1:15 PM 59.0 °F 55.4 °F 88% 29.99 in 10.0 mi East 5.8 mph - N/A   Overcast
1:35 PM 60.8 °F 55.4 °F 82% 29.98 in 10.0 mi ENE 3.5 mph - N/A   Overcast
1:55 PM 60.8 °F 55.4 °F 82% 29.97 in 10.0 mi NNE 6.9 mph - N/A   Overcast
2:15 PM 60.8 °F 57.2 °F 88% 29.96 in 10.0 mi ENE 4.6 mph - N/A   Overcast
2:36 PM 60.8 °F 57.2 °F 88% 29.96 in 10.0 mi ENE 4.6 mph - N/A   Overcast
2:55 PM 62.6 °F 57.2 °F 82% 29.95 in 10.0 mi East 5.8 mph - N/A   Overcast
3:15 PM 60.8 °F 57.2 °F 88% 29.95 in 10.0 mi East 4.6 mph - N/A   Overcast
3:35 PM 62.6 °F 57.2 °F 82% 29.95 in 10.0 mi ESE 5.8 mph - N/A   Overcast
3:55 PM 60.8 °F 57.2 °F 88% 29.94 in 10.0 mi SSE 3.5 mph - N/A   Overcast
4:15 PM 60.8 °F 57.2 °F 88% 29.93 in 10.0 mi SE 4.6 mph - N/A   Overcast
4:35 PM 60.8 °F 57.2 °F 88% 29.93 in 10.0 mi East 3.5 mph - N/A   Overcast
4:55 PM 60.8 °F 57.2 °F 88% 29.93 in 10.0 mi SE 4.6 mph - N/A   Overcast
5:15 PM 59.0 °F 55.4 °F 88% 29.94 in 9.0 mi South 15.0 mph 21.9 mph N/A   Overcast
5:35 PM 55.4 °F 53.6 °F 94% 29.92 in 4.0 mi Calm Calm - N/A   Overcast
5:55 PM 55.4 °F 53.6 °F 94% 29.92 in 5.0 mi Calm Calm - N/A   Mostly Cloudy
6:15 PM 55.4 °F 53.6 °F 94% 29.91 in 9.0 mi East 3.5 mph - N/A   Overcast
6:35 PM 55.4 °F 53.6 °F 94% 29.92 in 8.0 mi SE 4.6 mph - N/A   Overcast
6:55 PM 55.4 °F 53.6 °F 94% 29.92 in 10.0 mi SSE 5.8 mph - N/A   Overcast
7:15 PM 55.4 °F 53.6 °F 94% 29.93 in 10.0 mi SSW 8.1 mph - N/A   Overcast
7:35 PM 55.4 °F 53.6 °F 94% 29.94 in 5.0 mi South 5.8 mph - N/A   Overcast
7:55 PM 53.6 °F 53.6 °F 100% 29.94 in 10.0 mi SSE 4.6 mph - N/A   Overcast
8:15 PM 53.6 °F 51.8 °F 94% 29.94 in 6.0 mi SSE 4.6 mph - N/A   Overcast
8:35 PM 53.6 °F 51.8 °F 94% 29.94 in 0.8 mi SSW 4.6 mph - N/A   Overcast
8:55 PM 53.6 °F 51.8 °F 94% 29.94 in 0.2 mi Calm Calm - N/A   Overcast
9:15 PM 53.6 °F 51.8 °F 94% 29.95 in 0.2 mi Calm Calm - N/A   Overcast
9:55 PM 51.8 °F 51.8 °F 100% 29.94 in 0.2 mi SE 3.5 mph - N/A   Overcast
10:15 PM 51.8 °F 51.8 °F 100% 29.94 in 0.2 mi Calm Calm - N/A   Overcast
10:35 PM 51.8 °F 51.8 °F 100% 29.94 in 0.2 mi Calm Calm - N/A   Overcast
10:55 PM 51.8 °F 51.8 °F 100% 29.93 in 0.2 mi Calm Calm - N/A   Overcast
11:15 PM 51.8 °F 51.8 °F 100% 29.93 in 0.5 mi Calm Calm - N/A   Overcast
11:55 PM 51.8 °F 51.8 °F 100% 29.93 in 0.5 mi Calm Calm - N/A   Overcast